| time (UTC) | temp C | wind direction | speed KPH | gust KPH | rain 1hr cm | rain 24hr cm | rain mn cm | humidity % | barometer mb |
| 20260502233018 | 11 | 68 | 1.6 | 4.8 | 0.00 | 0.23 | 0.00 | 100 | 1011.9 |
| 20260502232016 | 11 | 68 | 1.6 | 6.4 | 0.00 | 0.23 | 0.00 | 100 | 1011.9 |
| 20260502231059 | 11 | 68 | 1.6 | 8.0 | 0.00 | 0.23 | 0.00 | 100 | 1011.9 |
| 20260502230056 | 11 | 68 | 3.2 | 8.0 | 0.00 | 0.23 | 0.23 | 100 | 1012.0 |
| 20260502225036 | 11 | 68 | 3.2 | 12.9 | 0.00 | 0.23 | 0.23 | 100 | 1012.0 |
| 20260502224018 | 11 | 45 | 3.2 | 9.7 | 0.03 | 0.23 | 0.23 | 100 | 1012.0 |
| 20260502223016 | 11 | 45 | 4.8 | 11.3 | 0.03 | 0.23 | 0.23 | 100 | 1012.0 |
| 20260502222018 | 11 | 68 | 4.8 | 11.3 | 0.05 | 0.23 | 0.23 | 100 | 1012.1 |
| 20260502221016 | 11 | 45 | 4.8 | 11.3 | 0.05 | 0.23 | 0.23 | 100 | 1012.1 |
| 20260502220016 | 11 | 45 | 4.8 | 11.3 | 0.05 | 0.23 | 0.23 | 100 | 1012.1 |
| 20260502215019 | 11 | 0.0 | 3.2 | 0.05 | 0.23 | 0.23 | 100 | 1012.1 | |
| 20260502214016 | 11 | 68 | 1.6 | 6.4 | 0.05 | 0.20 | 0.20 | 100 | 1012.1 |
| 20260502213016 | 11 | 45 | 3.2 | 9.7 | 0.05 | 0.20 | 0.20 | 100 | 1012.1 |
| 20260502212016 | 11 | 45 | 3.2 | 9.7 | 0.00 | 0.15 | 0.15 | 100 | 1012.2 |
| 20260502211016 | 11 | 45 | 3.2 | 9.7 | 0.00 | 0.15 | 0.15 | 100 | 1012.2 |
| 20260502210016 | 11 | 23 | 3.2 | 8.0 | 0.00 | 0.15 | 0.15 | 100 | 1012.2 |
| 20260502205038 | 11 | 45 | 4.8 | 9.7 | 0.00 | 0.15 | 0.15 | 100 | 1012.2 |
| 20260502204037 | 11 | 23 | 1.6 | 8.0 | 0.00 | 0.15 | 0.15 | 100 | 1012.2 |
| 20260502203016 | 11 | 45 | 3.2 | 9.7 | 0.00 | 0.15 | 0.15 | 100 | 1012.3 |
| 20260502202016 | 11 | 0 | 1.6 | 6.4 | 0.00 | 0.15 | 0.15 | 100 | 1012.3 |
| 20260502201018 | 11 | 0 | 3.2 | 8.0 | 0.00 | 0.15 | 0.15 | 99 | 1012.2 |
| 20260502200017 | 11 | 45 | 4.8 | 9.7 | 0.00 | 0.15 | 0.15 | 99 | 1012.1 |
| 20260502195016 | 11 | 45 | 3.2 | 9.7 | 0.00 | 0.15 | 0.15 | 99 | 1012.1 |
| 20260502194017 | 11 | 23 | 3.2 | 8.0 | 0.00 | 0.15 | 0.15 | 99 | 1012.1 |
| 20260502193016 | 11 | 68 | 3.2 | 8.0 | 0.00 | 0.15 | 0.15 | 99 | 1012.1 |
| 20260502192016 | 11 | 0 | 3.2 | 11.3 | 0.00 | 0.15 | 0.15 | 99 | 1012.2 |
| 20260502191016 | 11 | 0 | 1.6 | 6.4 | 0.00 | 0.15 | 0.15 | 99 | 1012.2 |
| 20260502190016 | 11 | 0 | 1.6 | 6.4 | 0.00 | 0.15 | 0.15 | 99 | 1012.3 |
| 20260502185016 | 11 | 45 | 1.6 | 6.4 | 0.00 | 0.15 | 0.15 | 99 | 1012.3 |
| 20260502184036 | 11 | 0 | 1.6 | 8.0 | 0.00 | 0.15 | 0.15 | 99 | 1012.3 |
| 20260502183036 | 11 | 338 | 1.6 | 6.4 | 0.00 | 0.15 | 0.15 | 98 | 1012.3 |
| 20260502182016 | 11 | 45 | 1.6 | 8.0 | 0.00 | 0.15 | 0.15 | 99 | 1012.3 |
| 20260502181016 | 11 | 0 | 3.2 | 9.7 | 0.00 | 0.15 | 0.15 | 99 | 1012.4 |
| 20260502164015 | 11 | 68 | 4.8 | 12.9 | 0.03 | 0.15 | 0.15 | 97 | 1012.7 |
| 20260502163015 | 11 | 45 | 4.8 | 14.5 | 0.00 | 0.15 | 0.15 | 96 | 1012.7 |
| 20260502162015 | 11 | 23 | 1.6 | 8.0 | 0.00 | 0.15 | 0.15 | 96 | 1012.8 |
| 20260502161037 | 11 | 23 | 6.4 | 16.1 | 0.00 | 0.15 | 0.15 | 96 | 1012.8 |
| 20260502152015 | 11 | 45 | 6.4 | 14.5 | 0.00 | 0.15 | 0.15 | 94 | 1013.3 |
| 20260502151015 | 11 | 45 | 8.0 | 14.5 | 0.03 | 0.15 | 0.15 | 94 | 1013.4 |
| 20260502123017 | 12 | 68 | 9.7 | 24.1 | 0.00 | 0.00 | 0.00 | 94 | 1014.9 |
| 20260502122017 | 12 | 45 | 12.9 | 29.0 | 0.00 | 0.00 | 0.00 | 94 | 1015.0 |
| 20260502121018 | 12 | 68 | 14.5 | 27.4 | 0.00 | 0.00 | 0.00 | 93 | 1015.1 |
| 20260502115017 | 12 | 68 | 12.9 | 25.7 | 0.00 | 0.00 | 0.00 | 91 | 1015.3 |
| 20260502114018 | 12 | 68 | 9.7 | 24.1 | 0.00 | 0.00 | 0.00 | 91 | 1015.3 |
| 20260502113019 | 12 | 68 | 11.3 | 25.7 | 0.00 | 0.00 | 0.00 | 90 | 1015.3 |
| 20260502112059 | 12 | 68 | 9.7 | 20.9 | 0.00 | 0.00 | 0.00 | 92 | 1015.3 |
| 20260502111017 | 12 | 68 | 11.3 | 25.7 | 0.00 | 0.00 | 0.00 | 93 | 1015.4 |
| 20260502110017 | 12 | 45 | 9.7 | 25.7 | 0.00 | 0.00 | 0.00 | 94 | 1015.5 |
| 20260502105017 | 12 | 90 | 11.3 | 25.7 | 0.00 | 0.00 | 0.00 | 93 | 1015.5 |
| 20260502104017 | 12 | 68 | 12.9 | 29.0 | 0.00 | 0.00 | 0.00 | 94 | 1015.4 |
| 20260502103017 | 12 | 68 | 12.9 | 27.4 | 0.00 | 0.00 | 0.00 | 94 | 1015.5 |
| 20260502102017 | 12 | 68 | 12.9 | 30.6 | 0.00 | 0.00 | 0.00 | 93 | 1015.4 |
| 20260502101017 | 12 | 68 | 12.9 | 27.4 | 0.00 | 0.00 | 0.00 | 93 | 1015.4 |
| 20260502091020 | 11 | 68 | 14.5 | 25.7 | 0.00 | 0.00 | 0.00 | 95 | 1015.9 |
| 20260502071057 | 11 | 45 | 9.7 | 22.5 | 0.00 | 0.00 | 0.00 | 96 | 1016.1 |
| 20260502070017 | 11 | 45 | 9.7 | 20.9 | 0.00 | 0.00 | 0.00 | 96 | 1016.2 |
| 20260502065017 | 11 | 68 | 8.0 | 17.7 | 0.00 | 0.00 | 0.00 | 96 | 1016.2 |
| 20260502064016 | 11 | 68 | 9.7 | 19.3 | 0.00 | 0.00 | 0.00 | 96 | 1016.2 |
| 20260502063038 | 11 | 68 | 11.3 | 22.5 | 0.00 | 0.00 | 0.00 | 97 | 1016.2 |
| 20260502062017 | 11 | 68 | 6.4 | 16.1 | 0.00 | 0.00 | 0.00 | 97 | 1016.2 |